Regional Weather Roundup
Issued by NWS

Home | Current Version | Previous Version | Graphics & Text | Print | Product List | Glossary Off
Versions: 1 2 3 4 5 6 7 8 9 10 11 12 13 14 15 16 17 18 19 20 21 22 23 24 25 26 27 28 29 30 31 32 33 34 35 36 37 38 39 40 41 42 43 44 45 46 47 48 49 50

000
ASUS43 KMKX 211811
RWRWI

WISCONSIN REGIONAL WEATHER ROUNDUP
NATIONAL WEATHER SERVICE MILWAUKEE/SULLIVAN WI
100 PM CDT THU SEP 21 2017

NOTE: "FAIR" INDICATES FEW OR NO CLOUDS BELOW 12,000 FEET WITH NO
SIGNIFICANT WEATHER AND/OR OBSTRUCTIONS TO VISIBILITY.

WIZ001-002-006>008-014>016-023>028-211900-
NORTHWEST WISCONSIN

CITY           SKY/WX    TMP DP  RH WIND       PRES   REMARKS
SUPERIOR ARPT  SUNNY     64  58  80 NE12G18   29.97F
6HR MIN TEMP:  37; 6HR MAX TEMP:  64;

ASHLAND        SUNNY     69  59  70 NE10      30.00F
6HR MIN TEMP:  39; 6HR MAX TEMP:  70;

HAYWARD        SUNNY     75  58  55 E7        29.97F
6HR MIN TEMP:  40; 6HR MAX TEMP:  75;

SIREN          SUNNY     76  52  42 SE8       29.93F
6HR MIN TEMP:  38; 6HR MAX TEMP:  76;

CUMBERLAND     SUNNY     72  55  56 SE9       29.96F
RICE LAKE      SUNNY     76  59  56 E9        29.97F
6HR MIN TEMP:  44; 6HR MAX TEMP:  76;

CHETEK         SUNNY     76  64  65 SE10G16   29.96F
6HR MIN TEMP:  46; 6HR MAX TEMP:  76;

LADYSMITH      SUNNY     78  64  61 SE9       30.00F
6HR MIN TEMP:  48; 6HR MAX TEMP:  78;

EAU CLAIRE     PTSUNNY   74  66  76 E15       29.95F
6HR MIN TEMP:  48; 6HR MAX TEMP:  77;

MENOMONIE      SUNNY     78  64  63 E8        29.94F
6HR MIN TEMP:  49; 6HR MAX TEMP:  78;

NEW RICHMOND   SUNNY     76  58  55 SE13      29.94F
6HR MIN TEMP:  47; 6HR MAX TEMP:  76;

OSCEOLA        SUNNY     77  58  52 SE14G20   29.95F
6HR MIN TEMP:  42; 6HR MAX TEMP:  77;

$$

WIZ003>005-009-010-017-018-211900-
NORTH CENTRAL WISCONSIN

CITY           SKY/WX    TMP DP  RH WIND       PRES   REMARKS
MANITOWISH WTR SUNNY     73  64  75 SE5       30.02F
6HR MIN TEMP:  41; 6HR MAX TEMP:  73;

ARBOR VITAE    SUNNY     77  67  70 S12       30.03S
6HR MIN TEMP:  47; 6HR MAX TEMP:  77;

WOODRUFF       SUNNY     77  67  70 S12       30.03S
6HR MIN TEMP:  47; 6HR MAX TEMP:  77;

RHINELANDER    CLOUDY    74  65  73 SE7       30.03F
6HR MIN TEMP:  51; 6HR MAX TEMP:  75;

EAGLE RIVER    MOSUNNY   73  60  63 SE7       30.03F
6HR MIN TEMP:  46; 6HR MAX TEMP:  75;

LAND O LAKES   SUNNY     75  61  62 S8        30.05F
6HR MIN TEMP:  44; 6HR MAX TEMP:  75;

PHILLIPS       SUNNY     75  65  71 SE9       30.00F
6HR MIN TEMP:  43; 6HR MAX TEMP:  75;

TOMAHAWK       MOSUNNY   76  64  67 SE3       30.02F
6HR MIN TEMP:  45; 6HR MAX TEMP:  77;

MEDFORD        CLOUDY    73  66  79 SE9       30.01F
6HR MIN TEMP:  51; 6HR MAX TEMP:  73;

MERRILL        MOSUNNY   76  67  73 SE10      30.02F
$$

WIZ029-030-035-036-043>047-211900-
CENTRAL WISCONSIN

CITY           SKY/WX    TMP DP  RH WIND       PRES   REMARKS
WAUSAU         CLOUDY    75  67  76 SE10      30.00F
6HR MIN TEMP:  57; 6HR MAX TEMP:  77;

MOSINEE        CLOUDY    73  68  83 SE9       30.03S
MARSHFIELD     CLOUDY    71  66  84 SE12      30.01F HAZE
6HR MIN TEMP:  58; 6HR MAX TEMP:  71;

STEVENS POINT  CLOUDY    69  68  98 SE9       30.03F FOG
6HR MIN TEMP:  63; 6HR MAX TEMP:  69;

WAUPACA        CLOUDY    72  71  95 SE5       30.03S FOG
6HR MIN TEMP:  68; 6HR MAX TEMP:  72;

WAUTOMA        CLOUDY    75  72  88 S5        30.01F
6HR MIN TEMP:  67; 6HR MAX TEMP:  74;

WISC RAPIDS    CLOUDY    71  69  93 SE8       30.02F FOG
6HR MIN TEMP:  63; 6HR MAX TEMP:  71;

CAMP DOUGLAS   NOT AVBL
$$

WIZ011>013-019>022-031-037>040-048>050-211900-
NORTHEAST WISCONSIN

CITY           SKY/WX    TMP DP  RH WIND       PRES   REMARKS
ANTIGO         MOSUNNY   75  67  75 SE9       30.04S
6HR MIN TEMP:  58; 6HR MAX TEMP:  75;

SHAWANO        CLOUDY    76  68  77 SE7       30.03R
6HR MIN TEMP:  67; 6HR MAX TEMP:  78;

OCONTO         CLOUDY    70  66  85 SE7       30.03S
6HR MIN TEMP:  66; 6HR MAX TEMP:  71;

STURGEON BAY   CLOUDY    73  67  81 VRB3      30.04F
6HR MIN TEMP:  65; 6HR MAX TEMP:  73;

GREEN BAY      CLOUDY    74  69  85 CALM      30.03F
6HR MIN TEMP:  68; 6HR MAX TEMP:  75;

MANITOWOC      CLOUDY    73  67  81 SE7       30.03F
6HR MIN TEMP:  69; 6HR MAX TEMP:  78;

APPLETON       NOT AVBL
CLINTONVILLE   NOT AVBL
OSHKOSH        CLOUDY    78  71  79 E6        30.01F HX  80
6HR MIN TEMP:  69; 6HR MAX TEMP:  78; 6HR PCP: TRACE;

$$

WIZ032>034-041-042-053>061-211900-
SOUTHWEST WISCONSIN

CITY           SKY/WX    TMP DP  RH WIND       PRES   REMARKS
LA CROSSE      SUNNY     82  66  57 S8        29.94  HX  85
SPARTA         CLOUDY    78  66  65 S8        29.97F HX  80
6HR MIN TEMP:  51; 6HR MAX TEMP:  78;

VIROQUA        MOSUNNY   79  67  67 S9G17     30.00S HX  81
6HR MIN TEMP:  62; 6HR MAX TEMP:  79;

BOSCOBEL       CLOUDY    85  63  47 VRB7      29.97F HX  86
6HR MIN TEMP:  66; 6HR MAX TEMP:  85;

PRAIRIE DU CHI CLOUDY    83  60  44 SE8       29.95F HX  83
6HR MIN TEMP:  65; 6HR MAX TEMP:  83;

PLATTEVILLE    CLOUDY    81  63  55 SE9       30.00F HX  82
6HR MIN TEMP:  65; 6HR MAX TEMP:  82;

$$

WIZ056-057-062-063-064-067-068-211900-
SOUTH CENTRAL WISCONSIN

CITY           SKY/WX    TMP DP  RH WIND       PRES   REMARKS
REEDSBURG      CLOUDY    80  69  70 S6        29.99F HX  82
6HR MIN TEMP:  65; 6HR MAX TEMP:  80; 6HR PCP:  0.03;

BARABOO/DELLS  CLOUDY    80  64  58 S7        30.00F HX  82
6HR MIN TEMP:  66; 6HR MAX TEMP:  80; 6HR PCP:  0.04;

LONE ROCK      MOSUNNY   81  69  67 S12       29.99F HX  84
6HR MIN TEMP:  68; 6HR MAX TEMP:  81;

MINERAL POINT  CLOUDY    82  68  61 SE8       30.01F HX  85
MADISON        PTSUNNY   80  70  71 SE6       30.01F HX  83
6HR MIN TEMP:  68; 6HR MAX TEMP:  80;

MIDDLETON      PTSUNNY   82  69  64 SE10      30.02F HX  84
6HR MIN TEMP:  68; 6HR MAX TEMP:  82; 6HR PCP:  0.07;

WATERTOWN      CLOUDY    80  71  74 SE3       30.03S HX  83
6HR MIN TEMP:  66; 6HR MAX TEMP:  80;

MONROE         CLOUDY    81  66  61 E5        30.02F HX  83
JANESVILLE     PTSUNNY   88  57  35 S7        30.01F HX  86
$$

WIZ051-052-058>065-066-070>072-211900-
SOUTHEAST WISCONSIN

CITY           SKY/WX    TMP DP  RH WIND       PRES   REMARKS
MILWAUKEE      CLOUDY    80  69  69 SE5       30.03S HX  83
6HR MIN TEMP:  71; 6HR MAX TEMP:  80;

WAUKESHA       MOSUNNY   82  63  51 NE5       30.04F HX  83
MILWAUKEE/TIMM SUNNY     84  63  48 S3        30.04S HX  85
RACINE         CLOUDY    83  69  62 E6        30.04S HX  86
6HR MIN TEMP:  68; 6HR MAX TEMP:  84;

BURLINGTON     CLOUDY    89  64  43 SE3       30.02F HX  91
6HR MIN TEMP:  65; 6HR MAX TEMP:  90;

KENOSHA        PTSUNNY   89  68  49 E10       30.02F HX  93
6HR MIN TEMP:  68; 6HR MAX TEMP:  89;

FOND DU LAC    CLOUDY    81  68  64 S7        30.02F HX  84
6HR MIN TEMP:  68; 6HR MAX TEMP:  81;

SHEBOYGAN      CLOUDY    79  68  69 SE7       30.03S HX  81
6HR MIN TEMP:  63; 6HR MAX TEMP:  80;

WEST BEND        N/A     81  70  69 S6        30.04S HX  84
JUNEAU         CLOUDY    79  70  74 SE7       30.04S HX  82
6HR MIN TEMP:  66; 6HR MAX TEMP:  80;

$$

LSZ147-162-211900-
LAKE SUPERIOR

STATION/POSITION TIME  TEMP    WIND        PRES    WAVE
                       AIR SEA DIR/SP/G            HT/PER
                 (UTC) (F)     (DEG/KT/KT) (MB)    (FT/S)
W MID LAKE BUOY  1750   54 55   40/ 10/ 12 1017.1F   1
DEVILS ISLAND    1800   59      60/ 12/ 14 1016.4F
PORT WING        1640   75      30/ 13/ 16 1016.6F
SAXON HARBOR     1740   63      30/  7/  8 1015.6F
$$

LMZ867-665-643>646-211900-
LAKE MICHIGAN

STATION/POSITION TIME  TEMP    WIND        PRES    WAVE
                       AIR SEA DIR/SP/G            HT/PER
                 (UTC) (F)     (DEG/KT/KT) (MB)    (FT/S)
S GREEN BAY BUOY 1800   67 67   60/  4/  6 1016.9
N MID LA



USA.gov is the U.S. government's official web portal to all federal, state and local government web resources and services.